LA5PPA-1 Weather Reports


Display with metric or nautical units.
time (UTC)temp
F
wind
direction
speed
MPH
gust
MPH
rain 1hr
in
rain 24hr
in
rain mn
in
humidity
%
barometer
mb
20260507170651 45 324 2.0 8.0 0.00 0.00 0.00 28 1021.3
20260507170151 46 317 4.0 7.0 0.00 0.00 0.00 28 1021.1
20260507165651 46 302 2.0 5.0 0.00 0.00 0.00 27 1021.2
20260507165151 46 272 3.0 6.0 0.00 0.00 0.00 28 1021.3
20260507164651 46 212 2.0 7.0 0.00 0.00 0.00 27 1021.3
20260507164151 46 303 0.0 7.0 0.00 0.00 0.00 28 1021.2
20260507163651 46 182 0.0 8.0 0.00 0.00 0.00 29 1021.3
20260507163151 46 257 6.0 8.0 0.00 0.00 0.00 28 1021.3
20260507162651 46 298 8.0 8.0 0.00 0.00 0.00 27 1021.2
20260507162151 46 255 6.0 8.0 0.00 0.00 0.00 27 1021.3
20260507161651 46 309 4.0 10.0 0.00 0.00 0.00 26 1021.2
20260507161151 46 260 4.0 6.0 0.00 0.00 0.00 28 1021.2
20260507160651 46 300 3.0 7.0 0.00 0.00 0.00 28 1021.2
20260507160151 45 319 1.0 6.0 0.00 0.00 0.00 26 1021.2
20260507155651 46 319 2.0 10.0 0.00 0.00 0.00 27 1021.3
20260507155151 46 306 0.0 8.0 0.00 0.00 0.00 27 1021.2
20260507154651 46 299 2.0 5.0 0.00 0.00 0.00 27 1021.2
20260507154151 45 281 3.0 9.0 0.00 0.00 0.00 27 1021.2
20260507153651 45 295 7.0 9.0 0.00 0.00 0.00 29 1021.2
20260507153151 45 305 7.0 9.0 0.00 0.00 0.00 26 1021.1
20260507152651 45 313 0.0 9.0 0.00 0.00 0.00 29 1021.2
20260507152151 45 315 6.0 8.0 0.00 0.00 0.00 28 1021.2
20260507151651 46 329 2.0 8.0 0.00 0.00 0.00 26 1021.2
20260507151151 47 317 6.0 9.0 0.00 0.00 0.00 28 1021.0
20260507150651 47 323 3.0 8.0 0.00 0.00 0.00 25 1021.2
20260507150151 47 244 1.0 8.0 0.00 0.00 0.00 29 1021.2
20260507145651 46 313 3.0 6.0 0.00 0.00 0.00 30 1021.1
20260507145151 46 319 5.0 7.0 0.00 0.00 0.00 27 1021.1
20260507144651 47 77 0.0 6.0 0.00 0.00 0.00 29 1021.1
20260507144151 48 279 2.0 8.0 0.00 0.00 0.00 27 1021.1
20260507143651 48 309 2.0 5.0 0.00 0.00 0.00 29 1021.1
20260507143151 47 104 0.0 10.0 0.00 0.00 0.00 29 1021.1
20260507142651 47 278 5.0 8.0 0.00 0.00 0.00 28 1021.1
20260507142151 47 296 6.0 8.0 0.00 0.00 0.00 29 1021.1
20260507141651 48 343 0.0 9.0 0.00 0.00 0.00 30 1021.0
20260507141151 47 306 1.0 9.0 0.00 0.00 0.00 31 1021.1
20260507140651 47 316 2.0 10.0 0.00 0.00 0.00 31 1021.0
20260507140151 47 300 5.0 7.0 0.00 0.00 0.00 30 1021.0
20260507135651 47 319 5.0 9.0 0.00 0.00 0.00 30 1021.0
20260507135151 46 288 3.0 7.0 0.00 0.00 0.00 31 1021.0
20260507134651 45 300 2.0 7.0 0.00 0.00 0.00 30 1021.1
20260507134151 45 312 5.0 10.0 0.00 0.00 0.00 31 1021.1
20260507133651 46 313 9.0 11.0 0.00 0.00 0.00 30 1021.1
20260507133151 47 307 4.0 10.0 0.00 0.00 0.00 27 1021.0
20260507132651 47 87 1.0 9.0 0.00 0.00 0.00 30 1021.1
20260507132151 48 327 4.0 7.0 0.00 0.00 0.00 29 1021.0
20260507131651 49 8 0.0 6.0 0.00 0.00 0.00 29 1021.0
20260507131151 48 270 0.0 9.0 0.00 0.00 0.00 31 1021.0
20260507130651 48 220 5.0 8.0 0.00 0.00 0.00 29 1021.1
20260507130151 48 212 5.0 7.0 0.00 0.00 0.00 28 1021.0
20260507125651 48 248 7.0 7.0 0.00 0.00 0.00 30 1021.1
20260507125151 48 15 1.0 6.0 0.00 0.00 0.00 32 1021.1
20260507124651 47 278 1.0 6.0 0.00 0.00 0.00 29 1021.0
20260507124151 46 310 2.0 5.0 0.00 0.00 0.00 34 1021.1
20260507123651 46 251 1.0 8.0 0.00 0.00 0.00 31 1021.1
20260507123151 46 288 5.0 7.0 0.00 0.00 0.00 32 1021.1
20260507122651 46 331 3.0 10.0 0.00 0.00 0.00 31 1021.0
20260507122151 46 300 5.0 9.0 0.00 0.00 0.00 32 1021.0
20260507121651 45 33 1.0 7.0 0.00 0.00 0.00 35 1021.0
20260507121151 44 56 0.0 10.0 0.00 0.00 0.00 35 1021.0
20260507120651 44 317 5.0 8.0 0.00 0.00 0.00 34 1021.0
20260507120151 44 9 3.0 9.0 0.00 0.00 0.00 32 1021.0
20260507115651 45 291 4.0 8.0 0.00 0.00 0.00 34 1020.9
20260507115151 45 265 2.0 7.0 0.00 0.00 0.00 33 1021.0
20260507114651 46 320 5.0 5.0 0.00 0.00 0.00 32 1021.1
20260507114151 46 189 0.0 5.0 0.00 0.00 0.00 34 1021.1
20260507113651 45 112 0.0 5.0 0.00 0.00 0.00 35 1021.1
20260507113151 44 12 0.0 6.0 0.00 0.00 0.00 36 1020.9
20260507112651 43 130 0.0 6.0 0.00 0.00 0.00 37 1021.0
20260507112151 42 302 3.0 7.0 0.00 0.00 0.00 37 1021.0
20260507111651 43 323 6.0 8.0 0.00 0.00 0.00 33 1021.0
20260507111151 43 300 3.0 11.0 0.00 0.00 0.00 35 1020.9
20260507110651 43 347 0.0 8.0 0.00 0.00 0.00 36 1021.0
20260507110151 42 315 0.0 8.0 0.00 0.00 0.00 36 1020.9
20260507105651 42 288 0.0 7.0 0.00 0.00 0.00 37 1020.9
20260507105151 42 310 7.0 9.0 0.00 0.00 0.00 33 1020.9
20260507104651 43 302 0.0 7.0 0.00 0.00 0.00 32 1020.9
20260507104151 43 296 4.0 5.0 0.00 0.00 0.00 33 1020.8
20260507103651 43 281 3.0 9.0 0.00 0.00 0.00 32 1020.8
20260507103151 43 268 4.0 9.0 0.00 0.00 0.00 34 1020.8
20260507102651 43 185 2.0 6.0 0.00 0.00 0.00 40 1020.8
20260507102152 43 298 3.0 8.0 0.00 0.00 0.00 37 1020.8
20260507101651 43 220 4.0 4.0 0.00 0.00 0.00 38 1020.8
20260507101151 43 286 3.0 7.0 0.00 0.00 0.00 39 1020.6
20260507100651 43 299 5.0 9.0 0.00 0.00 0.00 38 1020.6
20260507100151 42 151 2.0 5.0 0.00 0.00 0.00 41 1020.5
20260507095651 42 180 0.0 0.0 0.00 0.00 0.00 41 1020.5
20260507095151 41 180 0.0 5.0 0.00 0.00 0.00 42 1020.5
20260507094651 41 313 0.0 5.0 0.00 0.00 0.00 44 1020.5
20260507094151 40 316 1.0 6.0 0.00 0.00 0.00 42 1020.5
20260507093651 40 330 1.0 8.0 0.00 0.00 0.00 41 1020.4
20260507093151 41 300 3.0 6.0 0.00 0.00 0.00 40 1020.4
20260507092651 41 312 0.0 5.0 0.00 0.00 0.00 44 1020.4
20260507092151 40 284 2.0 6.0 0.00 0.00 0.00 43 1020.4
20260507091651 40 277 3.0 7.0 0.00 0.00 0.00 43 1020.5
20260507091151 41 234 2.0 5.0 0.00 0.00 0.00 42 1020.4
20260507090651 40 265 0.0 8.0 0.00 0.00 0.00 42 1020.5
20260507090151 40 153 0.0 3.0 0.00 0.00 0.00 45 1020.4
20260507085651 39 146 1.0 4.0 0.00 0.00 0.00 43 1020.4
20260507085151 38 64 0.0 6.0 0.00 0.00 0.00 45 1020.4
20260507084651 38 312 0.0 4.0 0.00 0.00 0.00 46 1020.5
20260507084151 37 313 2.0 4.0 0.00 0.00 0.00 49 1020.3
20260507083651 36 316 0.0 5.0 0.00 0.00 0.00 49 1020.4
20260507083151 36 309 4.0 6.0 0.00 0.00 0.00 48 1020.4
20260507082651 36 331 1.0 7.0 0.00 0.00 0.00 50 1020.3
20260507082151 35 300 6.0 9.0 0.00 0.00 0.00 49 1020.3
20260507081651 36 322 2.0 4.0 0.00 0.00 0.00 50 1020.2
20260507081151 35 291 3.0 5.0 0.00 0.00 0.00 50 1020.2
20260507080651 34 261 0.0 9.0 0.00 0.00 0.00 50 1020.2
20260507080151 34 285 1.0 6.0 0.00 0.00 0.00 50 1020.0
20260507075651 34 295 3.0 7.0 0.00 0.00 0.00 50 1020.0
20260507075151 33 337 0.0 6.0 0.00 0.00 0.00 52 1020.1
20260507074651 33 312 0.0 7.0 0.00 0.00 0.00 54 1020.0
20260507074151 33 334 5.0 9.0 0.00 0.00 0.00 51 1020.0
20260507073651 33 261 0.0 0.0 0.00 0.00 0.00 54 1020.1
20260507073151 32 261 0.0 3.0 0.00 0.00 0.00 56 1020.1
20260507072651 32 46 0.0 8.0 0.00 0.00 0.00 57 1020.0
20260507072151 31 351 0.0 7.0 0.00 0.00 0.00 55 1020.0
20260507071651 31 323 7.0 8.0 0.00 0.00 0.00 56 1020.0
20260507071151 31 302 3.0 6.0 0.00 0.00 0.00 57 1020.0
20260507070652 31 319 4.0 7.0 0.00 0.00 0.00 58 1020.0
20260507070152 31 329 5.0 5.0 0.00 0.00 0.00 58 1019.9
20260507065652 30 337 1.0 5.0 0.00 0.00 0.00 59 1019.9
20260507065152 30 278 1.0 6.0 0.00 0.00 0.00 59 1019.9
20260507064652 30 313 0.0 4.0 0.00 0.00 0.00 60 1019.8
20260507064152 29 260 0.0 1.0 0.00 0.00 0.00 63 1019.8
20260507063652 29 236 0.0 2.0 0.00 0.00 0.00 63 1019.8
20260507063152 29 306 0.0 3.0 0.00 0.00 0.00 63 1019.8
20260507062652 28 279 0.0 5.0 0.00 0.00 0.00 64 1019.8
20260507062152 28 272 0.0 0.0 0.00 0.00 0.00 65 1019.8
20260507061652 28 272 0.0 3.0 0.00 0.00 0.00 65 1019.6
20260507061152 28 302 0.0 2.0 0.00 0.00 0.00 66 1019.6
20260507060652 28 324 0.0 0.0 0.00 0.00 0.00 65 1019.5
20260507060152 27 324 0.0 0.0 0.00 0.00 0.00 65 1019.4
20260507055652 27 324 0.0 0.0 0.00 0.00 0.00 67 1019.6
20260507055152 27 295 0.0 0.0 0.00 0.00 0.00 69 1019.5
20260507054652 26 295 0.0 2.0 0.00 0.00 0.00 69 1019.6
20260507054152 26 272 0.0 1.0 0.00 0.00 0.00 70 1019.6
20260507053652 25 284 1.0 2.0 0.00 0.00 0.00 70 1019.5
20260507053152 25 300 0.0 3.0 0.00 0.00 0.00 70 1019.5
20260507052652 25 306 0.0 4.0 0.00 0.00 0.00 71 1019.5
20260507052152 25 292 0.0 2.0 0.00 0.00 0.00 72 1019.4
20260507051652 25 300 0.0 0.0 0.00 0.00 0.00 72 1019.4
20260507051152 24 300 0.0 0.0 0.00 0.00 0.00 73 1019.4
20260507050652 24 300 0.0 4.0 0.00 0.00 0.00 74 1019.4
20260507050152 23 310 0.0 0.0 0.00 0.00 0.00 75 1019.3
20260507045652 23 310 0.0 0.0 0.00 0.00 0.00 76 1019.3
20260507045152 23 310 0.0 0.0 0.00 0.00 0.00 77 1019.2
20260507044652 23 310 0.0 0.0 0.00 0.00 0.00 77 1019.2
20260507044152 22 310 0.0 0.0 0.00 0.00 0.00 78 1019.2
20260507043652 22 310 0.0 0.0 0.00 0.00 0.00 79 1019.2
20260507043152 21 310 0.0 0.0 0.00 0.00 0.00 80 1019.1
20260507042652 21 310 0.0 1.0 0.00 0.00 0.00 80 1019.1
20260507042152 20 306 1.0 2.0 0.00 0.00 0.00 81 1019.1
20260507041652 20 106 0.0 0.0 0.00 0.00 0.00 81 1019.0
20260507041152 19 106 0.0 0.0 0.00 0.00 0.00 82 1019.1
20260507040652 19 106 0.0 0.0 0.00 0.00 0.00 82 1019.0
20260507040152 19 106 0.0 0.0 0.00 0.00 0.00 81 1018.9
20260507035652 19 106 0.0 0.0 0.00 0.00 0.00 82 1018.9
20260507035152 19 106 0.0 0.0 0.00 0.00 0.00 82 1018.9
20260507034652 18 106 0.0 0.0 0.00 0.00 0.00 82 1018.7
20260507034152 18 106 0.0 0.0 0.00 0.00 0.00 82 1018.7
20260507033652 18 106 0.0 0.0 0.00 0.00 0.00 82 1018.7
20260507033152 18 106 0.0 0.0 0.00 0.00 0.00 82 1018.7
20260507032652 18 106 0.0 0.0 0.00 0.00 0.00 82 1018.7
20260507032152 18 106 0.0 0.0 0.00 0.00 0.00 81 1018.7
20260507031652 18 106 0.0 0.0 0.00 0.00 0.00 81 1018.9
20260507031152 18 106 0.0 0.0 0.00 0.00 0.00 81 1018.7
20260507030652 18 106 0.0 0.0 0.00 0.00 0.00 81 1018.7
20260507030152 18 106 0.0 0.0 0.00 0.00 0.00 81 1018.6
20260507025652 18 106 0.0 0.0 0.00 0.00 0.00 80 1018.6
20260507025152 18 106 0.0 0.0 0.00 0.00 0.00 80 1018.6
20260507024652 18 106 0.0 0.0 0.00 0.00 0.00 80 1018.6
20260507024152 18 106 0.0 0.0 0.00 0.00 0.00 80 1018.6
20260507023652 18 106 0.0 0.0 0.00 0.00 0.00 80 1018.6
20260507023152 18 106 0.0 0.0 0.00 0.00 0.00 80 1018.6
20260507022652 18 106 0.0 0.0 0.00 0.00 0.00 79 1018.5
20260507022152 18 106 0.0 0.0 0.00 0.00 0.00 79 1018.4
20260507021652 18 106 0.0 0.0 0.00 0.00 0.00 79 1018.5
20260507021152 19 106 0.0 0.0 0.00 0.00 0.00 79 1018.4
20260507020652 19 106 0.0 0.0 0.00 0.00 0.00 78 1018.4
20260507020152 19 106 0.0 0.0 0.00 0.00 0.00 78 1018.4
20260507015652 19 106 0.0 0.0 0.00 0.00 0.00 78 1018.4
20260507015152 19 106 0.0 0.0 0.00 0.00 0.00 78 1018.4
20260507014652 19 106 0.0 0.0 0.00 0.00 0.00 78 1018.3
20260507014152 19 106 0.0 0.0 0.00 0.00 0.00 77 1018.4
20260507013652 19 106 0.0 0.0 0.00 0.00 0.00 77 1018.4
20260507013152 19 106 0.0 0.0 0.00 0.00 0.00 77 1018.4
20260507012652 19 106 0.0 0.0 0.00 0.00 0.00 77 1018.3
20260507012152 20 106 0.0 0.0 0.00 0.00 0.00 76 1018.3
20260507011652 20 106 0.0 0.0 0.00 0.00 0.00 76 1018.2
20260507011152 20 106 0.0 0.0 0.00 0.00 0.00 76 1018.2
20260507010652 20 106 0.0 0.0 0.00 0.00 0.00 76 1018.2
20260507010152 20 106 0.0 0.0 0.00 0.00 0.00 75 1018.2
20260507005652 21 106 0.0 0.0 0.00 0.00 0.00 75 1018.2
20260507005152 21 106 0.0 0.0 0.00 0.00 0.00 74 1018.2
20260507004652 21 106 0.0 3.0 0.00 0.00 0.00 74 1018.2
20260507004152 21 135 3.0 3.0 0.00 0.00 0.00 74 1018.2
20260507003652 21 313 0.0 0.0 0.00 0.00 0.00 73 1018.1
20260507003152 21 313 0.0 0.0 0.00 0.00 0.00 73 1018.1
20260507002652 22 313 0.0 0.0 0.00 0.00 0.00 72 1018.1
20260507002152 22 313 0.0 0.0 0.00 0.00 0.00 71 1018.1
20260507001652 22 313 0.0 0.0 0.00 0.00 0.00 71 1018.1
20260507001152 23 313 0.0 0.0 0.00 0.00 0.00 71 1018.0
20260507000853 23 313 0.0 0.0 0.00 0.00 0.00 70 1018.0
20260507000652 23 313 0.0 0.0 0.00 0.00 0.00 70 1018.0
20260507000152 23 313 0.0 0.0 0.00 0.00 0.00 70 1018.1
20260506235652 23 313 0.0 0.0 0.00 0.00 0.00 69 1018.0
20260506235152 24 313 0.0 0.0 0.00 0.00 0.00 69 1018.0
20260506234652 24 313 0.0 0.0 0.00 0.00 0.00 68 1018.0
20260506234152 25 313 0.0 0.0 0.00 0.00 0.00 68 1018.0
20260506233652 25 313 0.0 0.0 0.00 0.00 0.00 67 1017.8
20260506233152 25 313 0.0 0.0 0.00 0.00 0.00 67 1018.0
20260506232652 26 313 0.0 0.0 0.00 0.00 0.00 67 1018.0
20260506232152 26 313 0.0 2.0 0.00 0.00 0.00 67 1018.0
20260506231652 26 320 1.0 3.0 0.00 0.00 0.00 67 1017.8
20260506231152 26 348 0.0 4.0 0.00 0.00 0.00 67 1017.8
20260506230652 26 340 3.0 4.0 0.00 0.00 0.00 67 1017.8
20260506230152 26 323 2.0 6.0 0.00 0.00 0.00 66 1017.8
20260506225652 26 319 2.0 5.0 0.00 0.00 0.00 66 1017.8
20260506225152 26 319 2.0 5.0 0.00 0.00 0.00 66 1017.8
20260506224652 26 333 5.0 6.0 0.00 0.00 0.00 67 1017.7
20260506224152 26 317 3.0 6.0 0.00 0.00 0.00 67 1017.7
20260506223652 26 320 3.0 6.0 0.00 0.00 0.00 67 1017.7
20260506223152 26 313 2.0 7.0 0.00 0.00 0.00 67 1017.7
20260506222953 26 309 5.0 7.0 0.00 0.00 0.00 67 1017.7
20260506222652 26 313 4.0 7.0 0.00 0.00 0.00 66 1017.7
20260506222152 26 316 4.0 7.0 0.00 0.00 0.00 66 1017.7
20260506221652 27 319 3.0 7.0 0.00 0.00 0.00 66 1017.6
20260506221152 27 305 2.0 10.0 0.00 0.00 0.00 66 1017.6
20260506220753 27 289 4.0 9.0 0.00 0.00 0.00 66 1017.5
20260506220152 27 315 4.0 8.0 0.00 0.00 0.00 66 1017.4
20260506215652 27 319 6.0 10.0 0.00 0.00 0.00 65 1017.5
20260506215152 27 323 5.0 8.0 0.00 0.00 0.00 65 1017.5
20260506214652 27 309 0.0 3.0 0.00 0.00 0.00 65 1017.6
20260506214554 27 309 0.0 3.0 0.00 0.00 0.00 65 1017.5
20260506214152 27 323 2.0 6.0 0.00 0.00 0.00 64 1017.5
20260506213653 27 278 2.0 7.0 0.00 0.00 0.00 65 1017.5
20260506213454 27 331 4.0 5.0 0.00 0.00 0.00 65 1017.5
20260506213152 27 306 1.0 5.0 0.00 0.00 0.00 64 1017.4
20260506212652 27 319 0.0 0.0 0.00 0.00 0.00 63 1017.5
20260506212354 27 319 0.0 3.0 0.00 0.00 0.00 63 1017.5
20260506212152 27 319 0.0 3.0 0.00 0.00 0.00 63 1017.5
20260506211653 27 307 0.0 0.0 0.00 0.00 0.00 62 1017.5
20260506211254 27 307 0.0 0.0 0.00 0.00 0.00 61 1017.5
20260506211153 28 307 0.0 0.0 0.00 0.00 0.00 61 1017.5
20260506210653 28 307 0.0 1.0 0.00 0.00 0.00 61 1017.5
20260506210153 28 305 0.0 0.0 0.00 0.00 0.00 61 1017.4
20260506205653 28 305 0.0 4.0 0.00 0.00 0.00 60 1017.5
20260506205153 28 310 3.0 7.0 0.00 0.00 0.00 60 1017.4
20260506205054 28 319 2.0 7.0 0.00 0.00 0.00 60 1017.5
20260506204653 28 298 3.0 7.0 0.00 0.00 0.00 60 1017.6
20260506204153 28 255 0.0 4.0 0.00 0.00 0.00 59 1017.5
20260506203954 28 323 0.0 4.0 0.00 0.00 0.00 58 1017.6
20260506203653 28 329 0.0 7.0 0.00 0.00 0.00 58 1017.6
20260506203153 29 265 0.0 4.0 0.00 0.00 0.00 58 1017.5
20260506202854 29 316 1.0 4.0 0.00 0.00 0.00 58 1017.4
20260506202653 29 291 1.0 5.0 0.00 0.00 0.00 58 1017.3
20260506202153 29 324 5.0 8.0 0.00 0.00 0.00 58 1017.3
20260506201754 29 323 2.0 4.0 0.00 0.00 0.00 57 1017.3
20260506201653 29 293 4.0 4.0 0.00 0.00 0.00 57 1017.4
20260506201153 29 316 0.0 4.0 0.00 0.00 0.00 57 1017.4
20260506200653 29 313 0.0 5.0 0.00 0.00 0.00 57 1017.4
20260506200153 29 313 0.0 6.0 0.00 0.00 0.00 56 1017.4
20260506195653 30 315 1.0 5.0 0.00 0.00 0.00 56 1017.5
20260506195554 30 315 1.0 5.0 0.00 0.00 0.00 56 1017.4
20260506195153 30 340 2.0 4.0 0.00 0.00 0.00 56 1017.4
20260506194653 30 0 0.0 2.0 0.00 0.00 0.00 55 1017.4
20260506194454 30 0 0.0 5.0 0.00 0.00 0.00 55 1017.4
20260506194153 30 324 1.0 5.0 0.00 0.00 0.00 55 1017.4
20260506193653 30 341 2.0 4.0 0.00 0.00 0.00 54 1017.4
20260506193354 30 327 0.0 5.0 0.00 0.00 0.00 54 1017.4
20260506193153 30 327 0.0 6.0 0.00 0.00 0.00 54 1017.3
20260506192653 31 323 6.0 8.0 0.00 0.00 0.00 53 1017.3
20260506192254 31 303 3.0 8.0 0.00 0.00 0.00 52 1017.3
20260506192153 31 316 3.0 8.0 0.00 0.00 0.00 52 1017.3
20260506191653 31 324 5.0 8.0 0.00 0.00 0.00 51 1017.4
20260506191153 32 313 6.0 6.0 0.00 0.00 0.00 49 1017.4
20260506190653 34 315 5.0 6.0 0.00 0.00 0.00 48 1017.4
20260506190153 35 340 0.0 7.0 0.00 0.00 0.00 46 1017.3
20260506190054 35 331 1.0 7.0 0.00 0.00 0.00 46 1017.3
20260506185653 35 358 0.0 3.0 0.00 0.00 0.00 48 1017.3
20260506185153 34 337 0.0 8.0 0.00 0.00 0.00 49 1017.3
20260506184954 34 323 3.0 8.0 0.00 0.00 0.00 48 1017.3
20260506184653 34 293 1.0 7.0 0.00 0.00 0.00 48 1017.3
20260506184153 34 322 1.0 7.0 0.00 0.00 0.00 48 1017.2
20260506183854 34 322 3.0 10.0 0.00 0.00 0.00 49 1017.2
20260506183653 34 327 3.0 10.0 0.00 0.00 0.00 49 1017.1
20260506183153 34 315 4.0 9.0 0.00 0.00 0.00 49 1017.1
20260506182754 34 299 2.0 9.0 0.00 0.00 0.00 49 1017.2
20260506182653 34 312 5.0 8.0 0.00 0.00 0.00 49 1017.1
20260506182153 35 312 6.0 8.0 0.00 0.00 0.00 49 1017.1
20260506181653 35 305 3.0 8.0 0.00 0.00 0.00 49 1017.1
20260506181153 34 289 2.0 9.0 0.00 0.00 0.00 49 1017.1
20260506180653 35 284 9.0 9.0 0.00 0.00 0.00 50 1016.9
20260506180554 35 262 2.0 7.0 0.00 0.00 0.00 49 1017.1
20260506180153 35 315 3.0 10.0 0.00 0.00 0.00 49 1016.9
20260506175653 35 300 4.0 9.0 0.00 0.00 0.00 49 1016.9
20260506175454 35 320 4.0 9.0 0.00 0.00 0.00 49 1017.1
20260506175153 34 288 4.0 14.0 0.00 0.00 0.00 48 1016.9
20260506174653 35 257 4.0 13.0 0.00 0.00 0.00 46 1017.1
20260506174354 35 320 5.0 12.0 0.00 0.00 0.00 45 1017.1
20260506174153 35 312 8.0 11.0 0.00 0.00 0.00 45 1016.9
20260506173653 35 286 8.0 11.0 0.00 0.00 0.00 42 1016.8
20260506173254 35 316 5.0 9.0 0.00 0.00 0.00 43 1016.9
20260506173153 35 312 3.0 9.0 0.00 0.00 0.00 42 1016.8
20260506172653 36 319 6.0 12.0 0.00 0.00 0.00 41 1016.7
20260506172153 36 319 5.0 9.0 0.00 0.00 0.00 39 1016.8
20260506171653 36 299 3.0 9.0 0.00 0.00 0.00 40 1016.7
20260506171153 36 277 2.0 10.0 0.00 0.00 0.00 41 1016.6
20260506171054 36 327 4.0 10.0 0.00 0.00 0.00 41 1016.6